#timestamp,LO_Frequency,Hit,StdDev 
1526893215.7,286046995.1,P
1526893235.5,286046995.6,P
1526893255.3,286046993.6,Y
1526893275.2,286046997.5,P
1526893295.0,286046994.9,P
1526893295.9,286046994.9,P
1526893315.7,286046996.0,Y
1526893335.6,286046999.4,P
1526893355.4,286046997.7,N
1526893375.2,286046995.1,P
1526893395.1,286046993.4,Y
1526893396.0,286046993.4,P
1526893415.8,286046997.8,N
1526893435.6,286046996.1,N
1526893455.5,286046993.6,Y
1526893475.3,286046997.8,P
1526893495.1,286046993.4,P
1526893515.9,286046995.8,N
1526893535.7,286046994.3,Y
1526893555.5,286046997.0,P
1526893575.4,286046995.5,P
1526893595.2,286046996.1,P
1526893615.0,286046994.5,Y
1526893615.9,286046994.5,P
1526893635.8,286046994.9,P
1526893655.6,286046995.7,P
1526893675.4,286046993.4,Y
1526893695.3,286046999.5,P
1526893715.1,286046997.0,N
1526893735.8,286046997.6,N
1526893755.7,286046995.5,Y
1526893775.5,286046997.3,P
1526893795.3,286046995.3,P
1526893815.2,286046995.8,P
1526893835.0,286046994.1,Y
1526893835.9,286046994.1,P
1526893855.7,286046997.3,N
1526893875.6,286046995.7,P
1526893895.4,286046993.4,Y
1526893915.3,286046996.6,P
1526893935.1,286046997.8,P
1526893936.0,286046997.8,N
1526893955.8,286046995.2,Y
1526893975.7,286046996.9,P
1526893995.5,286046999.4,P
1526894015.3,286046996.9,N
1526894035.2,286046997.3,N
1526894055.9,286046995.0,Y
1526894075.7,286046999.5,P
1526894095.6,286046997.7,N
1526894115.4,286046997.5,N
1526894135.2,286046995.1,Y
1526894155.1,286046997.8,P
1526894156.0,286046997.8,P
1526894175.8,286046997.9,P
1526894195.6,286046995.0,Y
1526894215.5,286046997.2,P
1526894235.3,286046995.3,P
1526894255.1,286046995.7,P
1526894275.9,286046996.1,Y
1526894295.7,286046997.0,P
1526894315.5,286046997.0,P
1526894335.4,286046997.3,P
1526894355.2,286046997.2,Y
1526894375.0,286046998.9,P
1526894375.9,286046998.9,N
1526894395.8,286046998.5,N
1526894415.6,286046999.0,N
1526894435.4,286046996.8,Y
1526894455.3,286046998.4,P
1526894475.1,286046996.6,P
1526894476.0,286046996.6,P
1526894495.8,286046996.6,Y
1526894515.7,286046998.3,P
1526894535.5,286046998.1,P
1526894555.3,286046998.6,P
1526894575.2,286046999.0,N
1526894595.9,286046999.1,N
1526894615.7,286046996.5,Y
1526894635.6,286046998.7,P
1526894655.4,286046996.5,P
1526894675.2,286046996.5,P
1526894695.0,286046999.6,N
1526894696.0,286046999.6,N
1526894715.8,286046996.9,N
1526894735.6,286046997.2,N
1526894755.4,286046997.8,N
1526894775.3,286046998.0,N
1526894795.1,286046997.8,N
1526894815.8,286046997.6,N
1526894835.7,286046995.5,Y
1526894855.5,286046996.7,P
1526894875.3,286046999.6,N
1526894895.2,286046996.6,N
1526894915.9,286046997.3,N
1526894935.7,286046997.5,N
1526894955.6,286046997.9,N
1526894975.4,286046997.5,N
1526894995.2,286046997.9,N
1526895015.1,286046994.9,Y
1526895016.0,286046994.9,P
1526895035.8,286046999.2,N
1526895055.6,286046999.3,N
1526895075.5,286046999.4,N
1526895095.3,286046999.5,N
1526895115.1,286046996.5,N
1526895135.9,286046996.6,N
1526895155.7,286046996.6,N
1526895175.5,286046997.0,N
1526895195.3,286046996.7,N
1526895215.2,286046997.1,N
1526895235.0,286046997.2,N
1526895235.9,286046997.2,N
1526895255.7,286046997.7,N
1526895275.6,286046997.8,N
1526895295.4,286046997.5,N
1526895315.2,286046997.1,N
1526895335.1,286046995.1,Y
1526895336.0,286046995.1,P
1526895355.8,286046998.5,N
1526895375.6,286047001.0,N
1526895395.5,286046998.6,N
1526895415.3,286046998.6,N
1526895435.1,286046998.6,N
1526895455.9,286047001.2,N
1526895475.7,286047001.1,N
1526895495.5,286046998.4,N
1526895515.4,286046998.1,N
1526895535.2,286046998.8,N
1526895555.0,286046998.5,N
1526895555.9,286046998.5,N
1526895575.8,286046998.8,N
1526895595.6,286046998.8,N
1526895615.4,286046998.5,N
1526895635.2,286046998.9,N
1526895655.1,286046998.5,N
1526895656.0,286046998.5,N
1526895675.8,286046998.6,N
1526895695.6,286046998.6,N
1526895715.5,286046998.5,N
1526895735.3,286047000.8,N
1526895755.1,286046998.3,N
1526895775.9,286046998.3,N
1526895795.7,286046998.3,N
1526895815.5,286046999.0,N
1526895835.4,286046998.9,N
1526895855.2,286046998.9,N
1526895875.0,286046998.9,N
1526895875.9,286046998.9,N
1526895895.8,286046999.2,N
1526895915.6,286046998.9,N
1526895935.4,286046998.9,N
1526895955.2,286046998.7,N
1526895975.1,286046998.8,N
1526895976.0,286046998.8,N
1526895995.8,286046998.8,N
1526896015.6,286046998.7,N
1526896035.5,286046998.7,N
1526896055.3,286046998.4,Y
1526896075.1,286046998.1,P
1526896095.9,286047001.2,P
1526896115.7,286047001.2,N
1526896135.5,286047001.1,N
1526896155.4,286046998.1,N
1526896175.2,286047000.8,N
1526896195.0,286047000.0,N
1526896195.9,286047000.0,N
1526896215.8,286047000.9,N
1526896235.6,286046999.9,N
1526896255.4,286047000.6,N
1526896275.3,286047000.4,N
1526896295.1,286047000.3,N
1526896296.0,286047000.3,N
1526896315.8,286047002.7,N
1526896335.7,286047000.2,N
1526896355.5,286046999.8,N
1526896375.3,286047002.8,N
1526896395.1,286047002.7,N
1526896415.9,286046999.7,N
1526896435.7,286047002.2,N
1526896455.5,286047001.9,N
1526896475.4,286047001.5,N
1526896495.2,286047001.9,N
1526896515.0,286047002.4,N
1526896515.9,286047002.4,N
1526896535.8,286047002.5,N
1526896555.6,286047002.1,N
1526896575.4,286047001.6,N
1526896595.3,286047001.7,N
1526896615.1,286047001.4,N
1526896616.0,286047001.4,N
1526896635.8,286047003.7,Y
1526896655.7,286047001.9,P
1526896675.5,286047004.3,P
1526896695.3,286047001.8,N
1526896715.2,286047004.2,Y
1526896735.9,286046999.9,P
1526896755.7,286047000.1,N
1526896775.6,286046999.8,N
1526896795.4,286047002.7,N
